sat.trackr.live / text

‹ back to catalog

NIGERIASAT-X

NORAD 37790 · 2011-044C

PAYLOAD ACTIVE UNKNOWN

§ Identity

Operator
Country
NIG
Launch date
2011-08-17
Launch site
DLS
Launch vehicle
Mass (kg)
RCS (m²)
0.21

External: N2YO · Heavens-Above · Gunter

§ Orbital elements

Epoch: 2026-09-20T04:51:23.044320Z

Period
98.57 min
Inclination
97.8665°
Eccentricity
0.0013213
Mean motion
14.60921204 rev/d
Perigee alt
680.9 km
Apogee alt
699.5 km
Semi-major
7,068.3 km
B*
5.2869e-5
RAAN
242.5918°
Arg perigee
40.4694°
Mean anomaly
319.7488°
Rev number
80,404

§ Raw data

NIGERIASAT-X1 37790U 11044C   26263.20235005  .00000215  00000+0  52869-4 0  99932 37790  97.8665 242.5918 0013213  40.4694 319.7488 14.60921204804042

JSON: /api/v1/satellites/37790 · /tle

For live sub-satellite position, see the globe view (requires WebGL).

§ Visibility from observer

Set your observer location to see the next 7 days of passes ≥ 10°. The values pass through the URL so the page stays shareable.

No JS? Fill the form by hand. The geolocation button needs JavaScript.